Location: Bay Harbour
(38.2612°N, 75.2555°W)
Time: 01:27:58
(UTC+00:00)

CZ-4 R/B - Pass Details

Date: 29 October 2020
Orbit: 532 x 598 km, 97.7° (Epoch: 02 December)

Event Time Altitude Azimuth Distance (km) Brightness Sun altitude
Rises 23:44:42 0° 171° (S) 2,703 4.8 -20.2°
Reaches altitude 10° 23:46:50 10° 173° (S) 1,805 3.9 -20.6°
Maximum altitude 23:50:43 72° 259° (WSW) 571 1.4 -21.4°
Drops below altitude 10° 23:54:35 10° 343° (NNW) 1,796 4.1 -22.2°
Sets 23:56:42 0° 346° (NNW) 2,687 5.0 -22.6°
